CZ-3C DEB, 42478

Orbit data source: Space-Track

CZ-3C DEB, 42478 is space debris in HEO originally from a launch on Fri, 24 Feb 2012 UTC launched from the Xichang Space Center, China (XSC). Debris objects in space refer to the collection of defunct objects orbiting the Earth. Examples of debris include non-operational satellites, rocket bodies, and fragments generated from explosions, collisions, or faulty payload assembly.

Loading next visibility...
Identifier
42478, 2012-008AN
Orbit
HEO
Country
Flag of CNCN / PRC
Related business
Manufacturer
CALT
Mission
Spacecraft
Bus & Motor
Unknown
Mass
Unknown
Launch date (UTC)
2012-02-24 (14 years ago)
Launch vehicle
Unknown
Launch site
Xichang Space Center, China (XSC)
Object type
Payload
Rocket body
Debris
Shape & HBR
Unknown
Radar Cross Section
Medium (>0.1 m² and <1 m²)

Expand to show TLE details & history
Last TLE update: 1 year ago

TLE from 1 year ago
0 CZ-3C DEB
1 42478U 12008AN  24164.29735707 -.00000072  00000-0  00000-0 0  9993
2 42478  20.2787 114.2210 6806610  94.3229 339.6687  2.24186473  5172
Epoch: 2024-06-12T07:08Z
TLE epoch observation values (Epoch: 2024-06-12T07:08:11.65Z)
Latitude
0.00002°
Longitude
105.9336°
Altitude
7,608.324 km
Speed
6.39 km/s
True Right ascension
07h 36m 21s
True Declination
0° 00' 00"
Sunlit
Object was in daylight at epoch
Visualization orbit readout
Latitude
Unknown
Longitude
Unknown
Altitude
Unknown
Speed
Unknown
Apparent Right ascension
Unknown
Apparent Declination
Unknown
Sunlit
N/A
Visualization observer readout
Local Sidereal Time
15:48:37
Azimuth
Unknown
Elevation
Unknown
Doppler factor
Unknown
Orbital elements
Apogee altitude
35,073.486 km
Perigee altitude
1,498.002 km
Semi-major axis
24,663.881 km
Eccentricity
0.68066
Inclination
20.2787°
RAAN
114.221°
Arg. of periapsis
94.3229°
True anomaly
265.66438°
Mean anomaly
339.6687°
Eccentric anomaly
309.63437°
Mean motion
0.56034 °/min
Orbital period
642.47 mins
BSTAR
0
Loading maneuver chart data...
Computing Atmospheric mass density...
Loading historical data...
Loading historical data...
Loading historical data...
Loading historical data...
Loading historical data...
Loading historical data...
Loading historical data...

Documentation

Showing up to 5 results
|